Simultaneous Nadir Overpasses (SNOs) Predictions

Prediction of SNOs between GOES-15 and METOP-B Satellite Orbit:

Table of predicted SNOs for the next 14.0 days since TLE Epoch: 6/16/2022
Index Date Time (GOES-15) GOES-15 Lat,Lon METOP-B Lat,Lon Distance(km) Time Diff (sec)
1 06/17/2022 06:19:27 0.20,-128.36 -0.57,-131.92 404.99 80
2 06/18/2022 05:56:07 0.23,-128.37 0.53,-126.92 164.81 80
3 06/19/2022 18:17:40 -0.21,-128.43 0.45,-131.49 347.76 80
4 06/20/2022 17:54:20 -0.23,-128.45 -0.65,-126.50 222.43 80
5 06/22/2022 06:16:00 0.20,-128.43 -0.40,-131.09 303.28 80
6 06/23/2022 05:52:42 0.22,-128.44 0.77,-126.10 266.51 80
7 06/24/2022 18:14:13 -0.20,-128.50 0.27,-130.66 246.52 80
8 06/25/2022 17:50:54 -0.22,-128.51 -0.84,-125.67 323.22 80
9 06/27/2022 06:12:34 0.19,-128.48 -0.20,-130.26 203.04 80
10 06/28/2022 05:49:15 0.21,-128.48 0.91,-125.27 365.92 80
11 06/29/2022 18:10:46 -0.19,-128.53 0.12,-129.82 148.48 80
